Weather History for Pampa / Mesa Vista, TX

Change the Weather History Date:

Tuesday, March 27, 2012

  Actual Average (KBGD) Record (KBGD)
Temperature  
Mean Temperature 69 °F 53 °F  
Max Temperature 87 °F 67 °F 95 °F (1971)
Min Temperature 51 °F 39 °F 13 °F (1955)
Degree Days  
Heating Degree Days 0 12  
Month to date heating degree days 438  
Since 1 July heating degree days 3431  
Cooling Degree Days 4 0  
Month to date cooling degree days 0  
Year to date cooling degree days 0  
Growing Degree Days 19 (Base 50)    
Moisture  
Dew Point 42 °F    
Average Humidity 45    
Maximum Humidity 94    
Minimum Humidity 9    
Precipitation  
Precipitation 0.00 in 0.06 in 1.30 in (1980)
Month to date precipitation 1.18  
Year to date precipitation 2.39  
Snow  
Snow 0.00 in - 9.00 in (2009)
Month to date snowfall  
Since 1 July snowfall  
Snow Depth -    
Sea Level Pressure  
Sea Level Pressure 29.89 in    
Wind  
Wind Speed 15 mph (SW)    
Max Wind Speed 28 mph    
Max Gust Speed 39 mph    
Visibility 10 miles    
Events      
T = Trace of Precipitation, MM = Missing Value Source: NWS Daily Summary

Daily Weather History Graph

Daily Weather History Graph

Search for Another Location

Airport:

Trip Planner

Search our weather history database for the weather conditions in past years. The results will help you decide how hot, cold, wet, or windy it might be!

Date:

Astronomy

Mar. 27, 2012 Rise Set
Actual Time 7:36 AM CDT 8:02 PM CDT
Civil Twilight 7:11 AM CDT 8:27 PM CDT
Nautical Twilight 6:41 AM CDT 8:58 PM CDT
Astronomical Twilight 6:10 AM CDT 9:28 PM CDT
Moon 10:18 AM CDT (3/27) 12:04 AM CDT (3/27)
Length of Visible Light 13h 16m
Length of Day
12h 25m
Waxing Crescent, 22% of the Moon is Illuminated
Mar 27
Waxing Crescent
Mar 30
First Quarter
Apr 6
Full
Apr 13
Last Quarter
Apr 21
New

Hourly Weather History & Observations

Time (CDT) Temp. Dew Point Humidity Pressure Visibility Wind Dir Wind Speed Gust Speed Precip Events Conditions
12:15 AM 66.2 °F 44.6 °F 46% 29.86 in 10.0 mi South 27.6 mph 34.5 mph N/A   Clear
12:35 AM 66.2 °F 44.6 °F 46% 29.85 in 10.0 mi South 26.5 mph 35.7 mph N/A   Clear
12:55 AM 64.4 °F 44.6 °F 49% 29.85 in 10.0 mi South 27.6 mph 35.7 mph N/A   Clear
1:15 AM 64.4 °F 44.6 °F 49% 29.86 in 10.0 mi South 27.6 mph 36.8 mph N/A   Clear
1:35 AM 64.4 °F 46.4 °F 52% 29.87 in 10.0 mi South 26.5 mph 39.1 mph N/A   Clear
1:55 AM 64.4 °F 46.4 °F 52% 29.86 in 10.0 mi South 26.5 mph 32.2 mph N/A   Clear
2:15 AM 64.4 °F 46.4 °F 52% 29.86 in 10.0 mi South 24.2 mph 32.2 mph N/A   Clear
2:35 AM 62.6 °F 46.4 °F 55% 29.87 in 10.0 mi South 20.7 mph 29.9 mph N/A   Clear
2:55 AM 62.6 °F 48.2 °F 59% 29.87 in 10.0 mi South 21.9 mph 28.8 mph N/A   Clear
3:15 AM 62.6 °F 48.2 °F 59% 29.86 in 10.0 mi South 20.7 mph 27.6 mph N/A   Clear
3:35 AM 62.6 °F 48.2 °F 59% 29.86 in 10.0 mi SSW 19.6 mph 26.5 mph N/A   Clear
3:55 AM 60.8 °F 50.0 °F 68% 29.86 in 10.0 mi SSW 13.8 mph 25.3 mph N/A   Clear
4:15 AM 60.8 °F 50.0 °F 68% 29.87 in 10.0 mi WSW 8.1 mph - N/A   Clear
4:35 AM 60.8 °F 50.0 °F 68% 29.87 in 10.0 mi SW 10.4 mph - N/A   Clear
4:55 AM 59.0 °F 50.0 °F 72% 29.87 in 10.0 mi West 5.8 mph - N/A   Clear
5:15 AM 57.2 °F 50.0 °F 77% 29.87 in 10.0 mi SSW 12.7 mph - N/A   Clear
5:35 AM 55.4 °F 50.0 °F 82% 29.87 in 10.0 mi SSW 9.2 mph - N/A   Clear
5:55 AM 55.4 °F 50.0 °F 82% 29.87 in 10.0 mi SSW 9.2 mph - N/A   Clear
6:15 AM 55.4 °F 50.0 °F 82% 29.87 in 10.0 mi SW 9.2 mph - N/A   Clear
6:35 AM 55.4 °F 50.0 °F 82% 29.88 in 10.0 mi SW 12.7 mph - N/A   Clear
6:55 AM 57.2 °F 51.8 °F 82% 29.88 in 10.0 mi SW 12.7 mph - N/A   Clear
7:15 AM 55.4 °F 50.0 °F 82% 29.89 in 10.0 mi SSW 6.9 mph - N/A   Clear
7:35 AM 53.6 °F 50.0 °F 88% 29.91 in 10.0 mi Calm Calm - N/A   Clear
7:55 AM 51.8 °F 50.0 °F 94% 29.91 in 10.0 mi SSW 5.8 mph - N/A   Clear
8:15 AM 51.8 °F 50.0 °F 94% 29.92 in 10.0 mi SSE 4.6 mph - N/A   Clear
8:35 AM 55.4 °F 51.8 °F 88% 29.92 in 10.0 mi SSW 6.9 mph - N/A   Clear
8:55 AM 59.0 °F 51.8 °F 77% 29.92 in 10.0 mi SSW 10.4 mph - N/A   Clear
9:15 AM 60.8 °F 51.8 °F 72% 29.92 in 10.0 mi SSW 11.5 mph - N/A   Clear
9:55 AM 62.6 °F 51.8 °F 68% 29.92 in 10.0 mi WSW 12.7 mph - N/A   Clear
10:15 AM 66.2 °F 50.0 °F 56% 29.92 in 10.0 mi SW 11.5 mph - N/A   Clear
10:35 AM 68.0 °F 48.2 °F 49% 29.92 in 10.0 mi WSW 9.2 mph - N/A   Clear
10:55 AM 69.8 °F 48.2 °F 46% 29.92 in 10.0 mi West 9.2 mph - N/A   Clear
11:15 AM 71.6 °F 46.4 °F 41% 29.92 in 10.0 mi WSW 6.9 mph - N/A   Clear
11:35 AM 73.4 °F 46.4 °F 38% 29.93 in 10.0 mi SW 4.6 mph - N/A   Clear
11:55 AM 75.2 °F 42.8 °F 31% 29.93 in 10.0 mi WSW 8.1 mph - N/A   Clear
12:15 PM 77.0 °F 42.8 °F 29% 29.94 in 10.0 mi North - - N/A   Clear
12:35 PM 78.8 °F 39.2 °F 24% 29.94 in 10.0 mi North - - N/A   Clear
12:55 PM 80.6 °F 35.6 °F 20% 29.93 in 10.0 mi North - - N/A   Clear
1:15 PM 80.6 °F 33.8 °F 18% 29.93 in 10.0 mi WNW 5.8 mph - N/A   Clear
1:35 PM 82.4 °F 32.0 °F 16% 29.92 in 10.0 mi West 6.9 mph - N/A   Clear
1:55 PM 82.4 °F 28.4 °F 14% 29.91 in 10.0 mi Calm Calm - N/A   Clear
2:15 PM 82.4 °F 28.4 °F 14% 29.91 in 10.0 mi South 8.1 mph - N/A   Clear
2:35 PM 86.0 °F 30.2 °F 13% 29.91 in 10.0 mi WSW 6.9 mph - N/A   Clear
2:55 PM 84.2 °F 28.4 °F 13% 29.90 in 10.0 mi Calm Calm - N/A   Clear
3:15 PM 86.0 °F 28.4 °F 12% 29.89 in 10.0 mi NW 5.8 mph - N/A   Clear
3:35 PM 86.0 °F 30.2 °F 13% 29.88 in 10.0 mi SW 5.8 mph - N/A   Clear
4:15 PM 87.8 °F 26.6 °F 11% 29.87 in 10.0 mi SSW 12.7 mph 16.1 mph N/A   Clear
4:55 PM 87.8 °F 28.4 °F 12% 29.87 in 10.0 mi SW 3.5 mph - N/A   Clear
5:15 PM 87.8 °F 26.6 °F 11% 29.86 in 10.0 mi WSW 5.8 mph - N/A   Clear
5:35 PM 87.8 °F 26.6 °F 11% 29.86 in 10.0 mi West 8.1 mph 19.6 mph N/A   Clear
5:55 PM 87.8 °F 26.6 °F 11% 29.85 in 10.0 mi West 4.6 mph - N/A   Clear
6:15 PM 87.8 °F 21.2 °F 9% 29.85 in 10.0 mi WSW 8.1 mph - N/A   Clear
6:35 PM 86.0 °F 32.0 °F 14% 29.86 in 10.0 mi North 6.9 mph - N/A   Clear
6:55 PM 82.4 °F 32.0 °F 16% 29.86 in 10.0 mi NNE 6.9 mph - N/A   Clear
7:15 PM 80.6 °F 35.6 °F 20% 29.86 in 10.0 mi NE 3.5 mph - N/A   Clear
7:35 PM 78.8 °F 37.4 °F 23% 29.86 in 10.0 mi NE 3.5 mph - N/A   Clear
7:55 PM 75.2 °F 37.4 °F 25% 29.86 in 10.0 mi NNE 5.8 mph - N/A   Clear
8:15 PM 71.6 °F 39.2 °F 31% 29.87 in 10.0 mi NE 6.9 mph - N/A   Clear
8:35 PM 71.6 °F 41.0 °F 33% 29.87 in 10.0 mi NE 8.1 mph - N/A   Clear
8:55 PM 69.8 °F 41.0 °F 35% 29.88 in 10.0 mi NE 9.2 mph - N/A   Clear
9:15 PM 69.8 °F 41.0 °F 35% 29.89 in 10.0 mi NE 4.6 mph - N/A   Clear
9:35 PM 71.6 °F 46.4 °F 41% 29.90 in 10.0 mi SSE 6.9 mph - N/A   Clear
9:55 PM 68.0 °F 53.6 °F 60% 29.90 in 10.0 mi South 4.6 mph - N/A   Clear
10:15 PM 69.8 °F 57.2 °F 64% 29.90 in 10.0 mi SSE 15.0 mph 19.6 mph N/A   Clear
10:35 PM 68.0 °F 57.2 °F 68% 29.90 in 10.0 mi SSE 16.1 mph 25.3 mph N/A   Clear
10:55 PM 68.0 °F 57.2 °F 68% 29.90 in 10.0 mi South 16.1 mph 20.7 mph N/A   Clear
11:15 PM 66.2 °F 57.2 °F 73% 29.91 in 10.0 mi South 17.3 mph - N/A   Clear
11:35 PM 64.4 °F 57.2 °F 77% 29.91 in 10.0 mi SSW 10.4 mph 16.1 mph N/A   Clear
11:55 PM 64.4 °F 57.2 °F 77% 29.91 in 10.0 mi South 13.8 mph - N/A   Clear